Tracking 20710 objects as of 30-May-2020
HD Live streaming from Space Station
objects crossing your sky now

FENGYUN 1C DEB

Track FENGYUN 1C DEB now!
10-day predictions


NORAD ID: 32171
Int'l Code: 1999-025CTR
Perigee: 762.1 km
Apogee: 1,564.4 km
Inclination: 102.8 °
Period: 108.5 minutes
Semi major axis: 7534 km
RCS: 0.0135 m2 (small)
Launch date: May 10, 1999
Source: People's Republic of China (PRC)
Launch site: Taiyaun Space Center, China (TSC)

Note: This is SATELLITE DEBRIS
aabbcc
Your satellite tracking list
Your tracking list is empty




NASA's NSSDC Master Catalog

Two Line Element Set (TLE):
1 32171U 99025CTR 20150.97304613  .00000098  00000-0  16694-3 0  9996
2 32171 102.8119 234.7794 0532426 350.0089 186.2187 13.27517573622904
Source of the keplerian elements: AFSPC